GW1976 Weather Reports


time (UTC)temp
C
wind
direction
speed
KPH
gust
KPH
rain 1hr
cm
rain 24hr
cm
rain mn
cm
humidity
%
barometer
mb
20260510070034 8 294 1.6 17.7 0.03 1.09 0.03 96 1009.6
20260510064531 8 283 3.2 9.7 0.00 1.09 0.00 96 1009.7
20260510063033 8 303 3.2 8.0 0.00 1.09 0.00 95 1010.1
20260510061536 8 266 1.6 4.8 0.00 1.09 0.00 95 1010.1
20260510060046 8 0 1.6 4.8 0.00 1.09 0.00 95 1010.5
20260510054533 8 64 1.6 6.4 0.00 1.09 0.00 95 1010.8
20260510053033 8 76 3.2 11.3 0.00 1.09 0.00 95 1011.0
20260510051534 8 103 3.2 12.9 0.00 1.09 0.00 96 1011.1
20260510050031 8 106 6.4 14.5 0.00 1.09 0.00 96 1011.1
20260510044534 8 124 6.4 12.9 0.00 1.09 0.00 97 1011.0
20260510043037 8 93 1.6 6.4 0.00 1.09 0.00 97 1010.3
20260510041533 8 330 3.2 12.9 0.00 1.09 0.00 97 1009.7
20260510040030 7 344 1.6 6.4 0.00 1.09 0.00 97 1009.6
20260510034532 7 334 1.6 6.4 0.00 1.09 1.09 96 1009.6
20260510033030 7 266 1.6 8.0 0.00 1.09 1.09 96 1009.5
20260510031549 8 304 4.8 8.0 0.00 1.09 1.09 96 1009.5
20260510030037 8 296 3.2 6.4 0.00 1.09 1.09 96 1009.8
20260510024535 8 312 1.6 8.0 0.00 1.09 1.09 96 1009.3
20260510023043 8 68 1.6 9.7 0.00 1.09 1.09 96 1009.5
20260510021531 8 31 1.6 6.4 0.00 1.09 1.09 96 1009.6
20260510020032 8 0 1.6 6.4 0.00 1.09 1.09 96 1009.3
20260510014533 8 321 1.6 6.4 0.00 1.09 1.09 96 1009.2
20260510013031 8 303 1.6 6.4 0.00 1.09 1.09 96 1009.3
20260510011536 8 51 1.6 6.4 0.00 1.09 1.09 96 1009.1
20260510010034 8 316 1.6 8.0 0.00 1.09 1.09 96 1009.1
20260510004539 8 331 1.6 6.4 0.00 1.09 1.09 95 1008.7
20260510003031 8 232 1.6 4.8 0.00 1.09 1.09 95 1008.9
20260510001533 9 50 3.2 11.3 0.00 1.09 1.09 94 1008.8
20260510000032 9 30 1.6 9.7 0.00 1.09 1.09 94 1008.5
20260509234530 9 9 1.6 6.4 0.00 1.09 1.09 94 1008.2
20260509233031 9 0 1.6 6.4 0.00 1.09 1.09 94 1008.1
20260509231530 10 34 1.6 6.4 0.00 1.09 1.09 94 1008.1
20260509230033 10 61 1.6 9.7 0.00 1.09 1.09 94 1007.9
20260509224532 10 103 3.2 11.3 0.00 1.09 1.09 94 1007.9
20260509223033 10 334 3.2 11.3 0.03 1.09 1.09 94 1008.1
20260509221535 10 78 1.6 11.3 0.03 1.09 1.09 95 1008.0
20260509220030 10 31 4.8 12.9 0.03 1.09 1.09 95 1008.0
20260509214533 10 38 3.2 17.7 0.03 1.09 1.09 96 1008.1
20260509213042 10 93 3.2 16.1 0.03 1.07 1.07 97 1008.2
20260509211553 9 9 3.2 14.5 0.03 1.07 1.07 97 1008.2
20260509210034 9 59 3.2 12.9 0.05 1.07 1.07 97 1008.3
20260509204530 9 61 3.2 11.3 0.05 1.07 1.07 97 1008.7
20260509203040 8 46 1.6 6.4 0.05 1.04 1.04 97 1008.6
20260509201531 8 0 1.6 14.5 0.05 1.04 1.04 97 1008.9
20260509200031 8 336 4.8 17.7 0.05 1.02 1.02 97 1008.9
20260509194530 8 9 3.2 16.1 0.08 1.02 1.02 97 1009.2
20260509193030 8 221 1.6 17.7 0.05 0.99 0.99 97 1009.2
20260509191530 8 32 3.2 14.5 0.08 0.99 0.99 97 1009.2
20260509190036 8 72 3.2 11.3 0.08 0.97 0.97 98 1009.2
20260509184528 8 248 3.2 14.5 0.05 0.94 0.94 97 1009.2
20260509183035 8 46 3.2 12.9 0.08 0.94 0.94 98 1009.3
20260509181530 8 18 4.8 24.1 0.08 0.91 0.91 98 1009.4
20260509180034 8 28 4.8 17.7 0.05 0.89 0.89 97 1009.2
20260509174534 8 61 3.2 12.9 0.05 0.86 0.86 98 1009.3
20260509173030 8 16 3.2 11.3 0.08 0.86 0.86 98 1009.3
20260509171531 7 126 3.2 8.0 0.08 0.84 0.84 97 1009.3
20260509170032 8 301 1.6 8.0 0.10 0.84 0.84 97 1009.2
20260509164531 7 332 1.6 8.0 0.10 0.81 0.81 97 1009.2
20260509163045 7 292 1.6 6.4 0.10 0.79 0.79 97 1009.2
20260509161528 7 299 1.6 6.4 0.10 0.76 0.76 97 1009.4
20260509160033 7 309 1.6 8.0 0.10 0.74 0.74 97 1009.8
20260509154535 7 319 1.6 8.0 0.10 0.74 0.71 97 1010.1
20260509153032 7 336 3.2 8.0 0.10 0.71 0.69 97 1010.2
20260509151530 7 330 1.6 6.4 0.10 0.69 0.66 97 1010.6
20260509150030 7 334 3.2 9.7 0.10 0.66 0.64 97 1010.6
20260509144530 7 289 1.6 8.0 0.10 0.64 0.61 97 1010.6
20260509143031 6 251 3.2 12.9 0.10 0.61 0.58 97 1010.6
20260509141533 6 319 3.2 12.9 0.10 0.58 0.56 97 1010.2
20260509140030 6 287 4.8 12.9 0.10 0.56 0.53 97 1010.1
20260509134528 6 324 3.2 8.0 0.10 0.53 0.51 97 1010.3
20260509133031 6 287 3.2 6.4 0.10 0.51 0.48 97 1010.4
20260509131535 6 316 1.6 6.4 0.10 0.48 0.46 97 1010.5
20260509130032 6 294 3.2 8.0 0.10 0.46 0.43 97 1010.7
20260509124530 6 239 1.6 6.4 0.08 0.41 0.38 97 1010.7
20260509123031 6 298 1.6 6.4 0.08 0.38 0.36 97 1010.7
20260509121531 6 289 1.6 6.4 0.10 0.38 0.36 97 1010.6
20260509120035 6 303 1.6 8.0 0.10 0.36 0.33 97 1010.6
20260509114533 6 298 3.2 6.4 0.10 0.33 0.30 97 1010.5
20260509113030 6 309 1.6 6.4 0.08 0.30 0.28 97 1010.6
20260509111531 6 309 1.6 6.4 0.08 0.28 0.25 97 1010.7
20260509110031 6 292 1.6 4.8 0.05 0.25 0.23 96 1010.7
20260509104535 5 298 1.6 6.4 0.05 0.23 0.20 96 1010.8
20260509103035 5 266 1.6 6.4 0.08 0.23 0.20 96 1010.5
20260509101531 5 296 1.6 6.4 0.05 0.20 0.18 96 1010.7
20260509100032 5 288 3.2 6.4 0.03 0.18 0.15 96 1010.6
20260509094533 5 266 3.2 6.4 0.05 0.18 0.15 96 1010.4
20260509093035 5 309 1.6 4.8 0.03 0.15 0.13 96 1010.5
20260509091535 5 296 1.6 4.8 0.05 0.15 0.13 96 1010.4
20260509090032 5 292 3.2 6.4 0.05 0.15 0.13 95 1010.6
20260509084536 5 279 3.2 4.8 0.05 0.13 0.10 95 1010.6
20260509083030 5 298 1.6 4.8 0.05 0.13 0.10 96 1011.0
20260509081534 4 275 1.6 6.4 0.05 0.10 0.08 95 1011.0
20260509080043 5 296 3.2 6.4 0.05 0.10 0.08 95 1011.0
20260509074533 4 285 3.2 6.4 0.05 0.08 0.05 94 1010.9
20260509073110 4 283 1.6 6.4 0.05 0.08 0.05 93 1011.2
20260509071530 5 309 1.6 6.4 0.03 0.05 0.03 92 1010.9